Wind_Speed
34 35 35 35 35 36 38 40 42 44 45 46 46 47 49 49 50 51 51 52 52 52 52 52 52 52 52 52 53 53 53 53 53 52 52 53 53 54
33 34 34 35 36 37 39 40 42 44 45 45 46 47 48 49 49 50 50 49 49 49 49 49 49 49 49 49 50 49 49 49 49 49 49 49 49 51
33 33 35 36 37 38 39 40 42 43 44 45 45 46 47 47 47 47 47 46 46 46 46 46 46 46 46 46 45 45 45 44 44 45 46 46 47 48
34 35 36 37 37 38 39 40 41 42 43 44 44 44 44 44 44 43 43 43 43 42 42 42 41 41 41 41 41 41 41 40 40 41 41 43 44 45
35 35 36 36 37 38 39 40 40 41 42 42 41 40 40 40 40 39 39 39 38 37 36 36 36 36 36 36 36 36 36 35 36 36 37 38 39 40
33 34 34 35 36 37 37 38 38 38 38 37 36 36 36 35 35 34 34 34 33 33 32 32 32 32 32 31 31 31 31 31 31 32 32 32 32 33
32 32 33 34 34 34 34 34 33 33 32 32 31 31 31 30 30 31 30 30 29 28 28 28 28 28 28 27 27 28 28 28 29 29 29 29 29 29
31 31 31 31 31 30 30 30 29 29 28 28 28 27 27 27 28 28 27 26 26 26 25 25 25 25 24 24 25 25 25 25 26 26 27 26 26 26
29 28 28 28 28 28 28 27 27 26 26 25 25 25 25 25 25 25 24 23 23 22 22 22 22 22 22 22 22 22 23 23 23 23 23 23 23 23
26 26 26 26 26 26 26 25 24 24 23 23 23 22 22 22 22 21 21 20 20 20 20 20 20 20 20 20 20 21 21 22 22 22 22 21 21 21
24 23 23 23 23 23 23 22 22 21 21 21 20 20 19 19 19 19 19 18 18 18 18 18 18 18 18 18 18 19 20 20 20 20 21 21 21 21
20 21 21 21 21 21 21 20 20 19 19 18 17 18 18 18 18 18 17 16 16 16 16 16 16 16 15 15 16 17 18 18 19 19 20 21 21 20
18 19 19 19 19 19 19 18 18 17 17 16 16 16 16 16 17 16 15 15 15 14 14 14 14 14 14 14 15 16 17 17 18 19 19 20 20 20
16 17 17 17 18 17 17 16 16 16 15 15 15 14 14 15 14 14 13 13 13 13 13 12 12 12 12 13 14 15 16 17 18 19 19 20 20 20
15 15 16 16 16 16 15 15 14 14 13 13 14 13 13 13 13 12 11 11 12 12 11 10 10 10 11 12 13 14 15 16 17 18 19 19 20 20
14 15 15 14 14 14 14 13 13 13 12 13 13 12 12 11 10 10 9 10 9 9 9 8 8 9 10 11 12 13 14 15 16 17 18 19 20 20
13 13 13 13 13 13 12 12 12 11 11 11 11 11 10 9 8 8 8 8 7 7 6 6 7 8 9 10 11 12 13 15 16 17 18 19 20 21
12 12 11 11 11 11 11 10 10 10 9 9 9 8 7 6 6 6 6 6 6 5 5 6 7 8 9 10 11 12 13 14 16 17 18 19 20 21
11 11 10 10 10 9 9 9 8 8 7 7 7 6 5 5 4 4 4 4 4 5 5 6 6 7 8 9 10 12 13 14 16 17 18 19 20 21
10 10 9 9 9 8 8 7 7 6 6 5 5 5 4 4 4 4 4 4 4 5 5 6 7 7 8 9 10 12 13 14 16 17 18 19 20 21
10 9 9 9 8 7 7 7 6 5 5 5 4 4 4 3 3 4 4 4 5 5 6 6 7 8 8 9 10 11 13 14 15 17 17 19 20 20
11 10 9 9 8 8 7 7 6 6 5 5 5 4 4 4 4 4 4 5 5 5 6 7 7 8 8 9 10 12 13 14 16 17 18 19 20 21
13 12 11 10 9 9 8 8 7 7 6 6 6 6 5 5 5 5 5 5 5 6 6 6 7 8 8 9 10 12 13 14 15 16 17 19 20 21
Wind_Direction
271 271 272 274 277 278 280 282 283 285 286 287 289 290 291 292 293 293 293 294 294 293 293 293 292 292 291 290 289 288 287 285 284 282 280 278 277 275
273 275 277 279 281 282 283 284 285 287 289 290 291 292 293 294 295 295 295 294 294 294 294 293 293 293 292 291 291 290 289 288 286 285 282 280 278 276
279 279 280 282 283 283 285 286 288 289 291 292 293 294 294 294 295 295 295 295 295 295 295 294 294 294 293 293 292 291 291 290 289 287 285 282 279 277
283 283 284 285 285 286 287 289 290 291 292 293 293 293 294 294 295 295 296 296 297 297 297 296 296 296 296 296 295 294 293 292 290 289 287 286 284 281
284 285 285 286 286 287 289 289 290 291 292 292 293 294 295 295 297 298 298 299 299 299 299 299 300 300 300 300 299 298 297 295 294 293 292 291 289 286
284 284 285 287 287 288 289 290 290 291 292 293 294 295 296 298 298 299 300 301 302 302 302 303 303 303 304 304 304 303 303 301 299 299 300 299 297 295
285 287 287 288 288 290 291 291 292 293 294 295 296 298 299 299 300 303 304 304 304 306 306 307 307 307 307 308 308 309 309 308 306 305 306 305 304 302
287 287 287 288 290 291 292 292 293 294 295 296 297 299 300 302 304 306 307 307 308 308 309 310 311 311 311 311 313 314 315 315 315 315 314 313 312 311
287 287 288 289 290 291 291 292 292 293 295 297 298 300 302 304 306 309 310 310 312 313 314 315 316 317 317 319 320 322 323 323 324 324 324 324 322 321
288 289 290 291 291 291 292 292 293 295 295 296 298 301 303 306 308 311 312 313 315 316 317 318 320 321 324 326 328 330 330 330 330 330 331 331 331 331
289 289 291 291 292 292 291 292 293 294 295 297 299 302 305 308 310 313 315 315 317 317 319 321 324 327 329 331 334 336 337 338 338 338 338 338 338 339
292 292 293 293 293 293 293 292 293 294 295 297 300 303 306 310 312 314 316 316 317 318 320 323 327 330 333 335 339 341 343 344 345 346 346 347 347 348
294 295 296 296 296 296 295 294 295 296 296 296 299 303 307 309 311 313 315 316 318 319 320 323 327 332 335 338 342 344 347 349 351 352 354 355 357 358
299 300 299 299 300 299 298 298 298 299 298 298 300 303 306 309 309 310 313 316 320 323 324 326 329 332 336 340 344 348 351 353 356 358 359 1 4 5
305 305 305 305 305 304 302 302 302 301 299 299 302 303 305 307 308 310 314 318 323 327 330 333 336 339 342 347 351 354 356 359 1 3 6 8 11 12
309 309 308 308 308 309 308 306 305 303 301 301 303 304 305 306 307 309 312 316 322 329 335 340 344 349 351 353 357 359 1 4 6 8 11 14 15 16
315 314 313 312 312 312 311 309 307 304 305 306 306 307 309 308 308 310 314 321 328 336 342 347 354 359 0 0 2 5 8 11 13 15 18 19 18 17
322 321 320 318 317 317 317 316 314 311 310 311 311 313 314 312 314 320 324 329 339 348 356 360 1 3 5 8 11 15 16 18 20 20 20 19 18 17
332 329 328 327 325 324 324 322 320 319 318 320 322 323 323 324 330 337 343 349 357 5 10 13 15 15 15 18 21 22 22 22 21 20 18 17 17 16
342 340 339 338 336 335 335 335 336 336 335 335 337 339 341 345 351 358 5 12 20 23 23 23 24 24 24 24 25 24 23 21 20 19 17 15 15 15
358 356 354 352 351 352 353 354 355 356 355 355 357 360 4 10 17 22 26 29 29 28 27 27 27 28 28 28 26 23 21 19 18 17 15 14 14 14
15 14 13 13 13 14 14 14 16 18 19 22 26 29 33 34 34 34 34 33 30 28 27 28 29 30 29 27 24 20 18 16 14 12 11 11 11 11
29 29 29 29 29 29 29 29 33 37 40 43 45 43 40 40 41 38 34 30 28 27 28 29 29 28 25 21 17 15 13 12 10 8 7 7 6 6
Height
5786 5785 5784 5784 5783 5782 5781 5780 5779 5776 5776 5774 5771 5768 5765 5762 5759 5756 5753 5749 5746 5742 5739 5735 5732 5728 5725 5722 5718 5715 5712 5709 5707 5704 5702 5700 5698 5697
5777 5777 5776 5775 5774 5774 5772 5771 5768 5766 5764 5763 5760 5757 5754 5751 5747 5744 5740 5737 5733 5729 5726 5722 5719 5715 5711 5708 5704 5701 5698 5694 5691 5689 5687 5684 5682 5680
5769 5768 5768 5767 5766 5764 5763 5761 5759 5756 5754 5752 5750 5746 5743 5740 5736 5732 5729 5725 5721 5717 5714 5710 5706 5703 5699 5695 5691 5687 5684 5681 5678 5675 5672 5669 5667 5665
5761 5760 5759 5758 5756 5755 5753 5751 5749 5747 5744 5742 5739 5736 5732 5729 5725 5721 5718 5714 5711 5707 5702 5699 5695 5691 5687 5683 5679 5676 5672 5669 5665 5662 5659 5656 5653 5649
5752 5751 5750 5748 5747 5745 5744 5742 5739 5737 5734 5731 5728 5725 5722 5719 5715 5712 5708 5704 5700 5697 5693 5689 5685 5681 5677 5673 5669 5665 5662 5658 5655 5651 5647 5643 5639 5636
5743 5742 5741 5739 5738 5736 5734 5732 5729 5727 5724 5722 5719 5716 5713 5710 5707 5703 5699 5695 5692 5688 5685 5681 5677 5673 5669 5665 5661 5657 5653 5649 5646 5642 5638 5633 5629 5626
5735 5733 5732 5730 5728 5726 5724 5722 5720 5718 5715 5713 5710 5707 5705 5702 5699 5695 5692 5688 5684 5681 5677 5674 5670 5666 5662 5658 5655 5651 5647 5642 5638 5635 5630 5626 5622 5618
5726 5725 5723 5721 5720 5718 5716 5714 5712 5710 5708 5705 5703 5700 5698 5695 5692 5688 5685 5682 5678 5675 5672 5668 5664 5661 5657 5653 5649 5645 5641 5637 5633 5629 5624 5620 5616 5611
5718 5717 5715 5714 5712 5710 5708 5707 5705 5702 5701 5699 5696 5694 5691 5688 5686 5682 5679 5676 5673 5669 5666 5663 5659 5656 5652 5649 5645 5641 5637 5632 5628 5624 5620 5615 5611 5607
5711 5710 5708 5706 5705 5703 5701 5699 5698 5696 5694 5692 5690 5688 5685 5683 5680 5678 5674 5671 5668 5665 5662 5659 5656 5652 5649 5645 5641 5638 5634 5630 5625 5621 5617 5612 5608 5603
5705 5703 5701 5700 5698 5696 5695 5693 5691 5690 5688 5686 5684 5682 5680 5678 5675 5673 5670 5667 5665 5662 5659 5656 5653 5649 5646 5643 5639 5636 5632 5627 5623 5619 5614 5610 5605 5601
5699 5697 5695 5694 5692 5690 5689 5687 5686 5684 5683 5681 5679 5677 5675 5673 5671 5669 5666 5664 5661 5659 5656 5653 5650 5647 5644 5641 5638 5634 5630 5626 5622 5617 5613 5608 5604 5599
5693 5692 5690 5688 5687 5685 5683 5682 5680 5679 5677 5676 5675 5673 5671 5669 5667 5665 5663 5661 5658 5656 5654 5651 5648 5645 5642 5640 5636 5633 5629 5625 5621 5617 5612 5608 5603 5598
5689 5687 5685 5684 5682 5680 5678 5677 5676 5674 5673 5672 5670 5669 5667 5666 5664 5662 5660 5658 5656 5653 5651 5649 5646 5644 5641 5638 5635 5632 5628 5624 5620 5616 5612 5607 5603 5598
5684 5683 5681 5679 5678 5676 5674 5673 5671 5670 5669 5668 5666 5665 5664 5662 5661 5659 5657 5655 5653 5651 5649 5647 5645 5643 5640 5637 5634 5631 5628 5624 5620 5616 5612 5607 5603 5599
5681 5679 5677 5676 5674 5672 5671 5669 5668 5667 5665 5664 5663 5662 5661 5659 5658 5656 5655 5653 5652 5650 5648 5646 5644 5642 5640 5637 5634 5631 5628 5625 5621 5617 5613 5609 5604 5600
5678 5676 5674 5673 5671 5670 5668 5666 5665 5664 5663 5661 5660 5659 5658 5657 5656 5654 5653 5651 5650 5648 5647 5645 5643 5641 5639 5637 5635 5632 5629 5625 5622 5618 5614 5610 5606 5602
5675 5674 5672 5670 5669 5667 5666 5664 5663 5661 5660 5659 5658 5657 5656 5655 5654 5653 5651 5650 5649 5647 5646 5645 5643 5641 5640 5637 5635 5632 5629 5626 5623 5619 5616 5612 5608 5604
5673 5672 5670 5668 5667 5665 5664 5662 5661 5660 5659 5658 5657 5655 5654 5654 5653 5652 5651 5649 5648 5647 5646 5645 5643 5642 5640 5638 5635 5633 5630 5627 5624 5621 5618 5614 5610 5606
5672 5670 5669 5667 5665 5664 5662 5661 5660 5659 5658 5657 5656 5655 5654 5653 5652 5651 5650 5649 5648 5647 5646 5645 5643 5642 5640 5638 5636 5634 5631 5628 5625 5622 5619 5615 5612 5608
5671 5670 5668 5666 5665 5663 5662 5660 5659 5658 5657 5656 5655 5654 5653 5653 5652 5651 5650 5649 5649 5648 5646 5645 5644 5642 5640 5639 5637 5635 5632 5629 5627 5624 5620 5617 5613 5609
5672 5670 5668 5666 5665 5663 5662 5661 5659 5658 5657 5656 5655 5655 5654 5653 5652 5652 5651 5650 5649 5648 5647 5646 5644 5643 5641 5640 5638 5636 5633 5630 5627 5624 5621 5618 5614 5610
5673 5671 5669 5667 5666 5664 5663 5661 5660 5659 5658 5657 5656 5656 5655 5654 5653 5652 5651 5651 5650 5648 5647 5646 5645 5644 5642 5640 5638 5636 5634 5631 5628 5625 5622 5618 5614 5610